CST,Max TemperatureF,Mean TemperatureF,Min TemperatureF,Max Dew PointF,MeanDew PointF,Min DewpointF,Max Humidity, Mean Humidity, Min Humidity, Max Sea Level PressureIn, Mean Sea Level PressureIn, Min Sea Level PressureIn, Max VisibilityMiles, Mean VisibilityMiles, Min VisibilityMiles, Max Wind SpeedMPH, Mean Wind SpeedMPH, Max Gust SpeedMPH,PrecipitationIn, CloudCover, Events, WindDirDegrees
2012-12-1,60,44,28,54,43,27,100,85,72,30.00,29.86,29.77,10,4,0,9,1,,0.00,6,Fog,177
2012-12-2,53,44,35,48,40,34,100,92,77,30.03,29.93,29.83,7,1,0,9,1,,0.01,7,Fog,142
2012-12-3,64,50,35,55,43,28,94,72,45,30.07,29.81,29.65,10,9,3,18,8,28,0.00,1,,238
2012-12-4,60,40,21,30,22,16,93,63,17,30.31,30.22,30.07,10,10,10,12,2,,0.00,0,,283
2012-12-5,57,40,24,28,24,19,80,51,23,30.34,30.17,29.97,10,10,10,17,5,23,0.00,0,,160
2012-12-6,50,46,41,37,32,27,81,62,46,29.98,29.93,29.86,10,10,10,13,7,18,0.00,3,,224
2012-12-7,46,38,30,36,29,25,86,67,43,29.97,29.92,29.87,10,10,7,12,5,,0.00,3,,22
2012-12-8,41,31,21,30,25,18,93,75,53,30.02,29.95,29.89,10,9,2,9,2,,0.00,2,,104
2012-12-9,37,26,15,36,21,5,93,76,55,30.08,29.94,29.84,10,7,2,24,7,31,0.07,6,Rain,301
2012-12-10,26,17,8,7,3,-2,73,56,29,30.09,30.02,29.95,10,10,10,17,9,24,0.00,3,,288
2012-12-11,42,27,12,18,12,3,74,56,29,30.06,30.00,29.93,10,10,10,15,3,21,0.00,1,,219
2012-12-12,51,36,21,18,12,7,80,44,17,30.10,30.05,30.00,10,10,0,23,10,29,0.00,0,,183
2012-12-13,51,35,19,18,13,9,80,45,24,30.08,30.06,30.03,10,10,7,14,8,18,0.00,0,,191
2012-12-14,53,34,15,37,25,12,86,63,35,30.07,29.91,29.65,10,10,5,16,4,22,0.13,3,Rain,159
2012-12-15,48,42,35,45,39,30,93,83,76,29.71,29.57,29.46,10,10,7,16,10,24,0.27,8,Rain,234
2012-12-16,35,32,28,30,28,25,93,83,75,29.80,29.75,29.71,10,6,2,10,5,,0.00,7,,339
2012-12-17,32,28,24,28,25,21,93,89,80,29.78,29.72,29.64,10,5,1,8,2,,0.00,5,,207
2012-12-18,41,32,24,28,26,21,93,79,61,29.88,29.68,29.49,10,8,4,21,6,30,0.00,1,,243
2012-12-19,37,32,26,30,27,23,93,85,70,29.92,29.80,29.62,10,6,2,20,5,28,0.47,4,Rain-Snow,46
2012-12-20,32,24,17,28,17,10,93,79,68,30.19,29.90,29.57,10,6,0,36,21,46,0.01,4,Snow,322
2012-12-21,28,17,6,18,10,1,92,71,47,30.34,30.26,30.19,10,10,10,14,3,,0.00,0,,320
2012-12-22,37,24,10,27,17,7,93,76,56,30.20,30.02,29.91,10,10,10,12,2,,0.00,0,,244
2012-12-23,26,19,12,18,13,7,86,77,64,30.04,29.99,29.94,10,10,7,10,7,,0.00,0,,9
2012-12-24,19,16,12,14,9,5,86,74,67,30.22,30.09,29.98,10,8,3,17,11,23,0.00,4,Snow,343
2012-12-25,15,9,3,7,2,-2,79,71,58,30.44,30.33,30.22,10,10,10,22,11,24,0.00,1,,6
2012-12-26,19,11,3,10,4,-2,85,73,62,30.32,30.23,30.17,10,10,10,9,6,,0.00,0,,2
2012-12-27,26,16,6,19,13,3,85,74,64,30.17,30.06,29.97,10,10,2,12,3,17,0.00,5,Snow,105
2012-12-28,26,22,17,21,18,12,86,80,74,30.08,29.99,29.95,10,8,4,14,4,21,0.00,7,Snow,323
2012-12-29,30,20,10,16,12,7,92,74,51,30.24,30.19,30.09,10,10,5,15,7,20,0.00,3,Snow,279
2012-12-30,44,27,10,23,17,7,92,63,31,30.27,30.12,30.01,10,10,10,24,6,31,0.00,0,,201
2012-12-31,30,22,15,21,14,7,86,71,63,30.23,30.16,30.07,10,9,0,14,7,18,0.00,4,Snow,7